Theta_e
332 333 333 333 330 330 331 327 325 328 327 323 323 324 324 325 324 324 327 329 332 332 332 331 330 329 329 328 328 327 327 327 327 328 329 328 327 326 326 325 325 324 323 321 320 319 317 317 316 315 314 313 312 311 310 309 309 308 307 306 305 305 305 305 305 305 305 306 306 307 307 307 308 308 308 308 309 309 309 309 308 308 308 308 308
332 332 332 331 330 332 333 331 330 332 332 330 329 330 330 329 329 330 330 331 332 331 331 331 330 330 329 328 329 328 326 327 327 328 329 327 326 327 326 326 325 324 323 322 320 319 318 317 317 316 315 314 313 311 311 310 309 308 307 306 305 305 305 305 304 305 305 305 305 306 306 306 307 307 307 308 308 308 308 308 308 308 308 308 308
331 332 330 330 332 333 333 332 332 333 334 333 330 330 330 330 331 331 331 331 331 331 330 330 330 330 329 329 330 329 328 327 326 326 328 327 327 327 327 327 326 324 323 321 319 319 319 319 318 318 317 315 313 311 310 310 310 308 307 306 305 305 305 305 305 305 305 304 305 305 305 306 306 306 307 307 308 308 308 308 308 308 308 308 308
331 331 330 331 333 333 333 333 333 332 333 332 330 330 331 331 331 332 333 332 330 330 330 331 330 330 330 330 330 330 328 327 325 325 326 326 326 327 326 327 326 324 322 320 319 320 320 320 321 319 318 316 313 311 309 309 309 308 307 306 306 306 305 305 305 305 304 304 304 304 304 305 305 306 306 307 308 308 308 308 308 308 308 308 307
332 331 330 333 333 332 333 333 332 331 331 330 329 329 331 331 331 332 333 331 330 330 331 332 331 330 330 329 329 329 328 326 325 325 325 325 325 325 325 326 325 324 322 319 319 320 321 323 325 322 318 316 313 310 309 308 308 307 306 306 306 305 305 305 304 304 304 304 303 304 304 304 305 306 307 307 308 308 309 309 309 308 308 308 307
332 331 331 333 332 330 331 332 331 330 330 330 329 330 331 331 331 333 333 330 330 331 331 331 330 330 330 329 330 330 328 327 326 325 325 325 326 326 325 326 326 325 323 321 321 322 323 326 328 325 319 315 313 311 310 309 308 308 308 308 308 307 307 306 306 305 304 303 303 303 304 305 306 307 307 308 308 309 309 309 309 309 308 308 308
331 331 332 332 329 329 330 330 330 330 330 330 331 331 331 332 332 333 332 331 332 332 331 331 330 330 330 329 330 330 329 328 327 327 327 326 327 326 326 326 327 326 325 324 324 325 326 327 328 326 320 317 317 316 316 315 314 313 314 314 315 315 314 313 311 309 308 306 306 306 306 307 308 308 308 308 309 309 309 310 309 309 308 308 309
331 331 331 330 328 329 330 330 329 330 331 330 331 332 331 332 333 332 332 331 332 331 331 331 331 331 331 330 329 330 330 329 329 328 328 327 327 326 326 326 327 328 326 324 323 325 326 326 328 326 322 320 321 322 322 321 321 320 321 321 321 322 321 320 319 316 314 311 310 309 309 309 309 309 309 309 310 310 310 309 309 308 308 309 309
331 330 329 329 329 329 328 329 328 329 331 331 331 332 330 331 333 332 332 332 332 332 331 331 331 331 331 330 329 330 329 329 329 329 328 327 326 326 326 327 328 328 327 325 322 323 324 325 327 327 325 324 324 326 326 325 324 324 324 324 324 324 324 323 323 322 320 317 315 313 312 311 311 311 311 312 311 311 310 309 308 308 308 309 310
330 327 326 328 329 328 326 328 327 327 331 332 331 332 331 331 333 332 332 332 332 331 331 330 331 331 330 329 329 328 328 327 328 328 328 327 326 326 327 327 328 328 327 326 322 320 322 325 327 327 326 326 326 327 328 327 327 326 325 325 324 324 324 324 324 323 323 322 320 318 316 315 314 315 315 315 313 312 310 309 308 307 309 313 316
329 327 326 327 328 328 327 328 327 329 332 331 330 331 332 331 332 331 330 332 331 331 331 331 331 331 330 329 329 329 328 326 326 327 327 326 326 326 326 327 327 327 327 326 324 321 321 323 325 326 326 326 326 326 327 327 327 327 327 327 326 326 325 325 325 323 323 323 322 321 320 319 319 319 319 318 316 313 310 308 308 311 316 321 323
328 329 328 325 326 327 328 327 328 331 332 330 329 331 333 331 329 329 329 330 331 331 331 331 331 331 330 329 329 328 328 327 326 327 327 326 326 326 326 326 326 326 326 326 326 325 324 323 322 323 324 325 326 326 325 325 326 326 327 327 327 327 327 326 326 324 323 324 323 322 322 322 322 321 321 321 320 316 313 312 314 318 322 324 324
327 328 327 325 325 327 327 327 330 332 331 329 329 330 331 330 327 328 329 330 331 332 331 330 331 330 330 329 328 327 327 327 327 327 327 326 326 326 325 325 325 325 325 326 326 326 326 323 320 320 322 324 324 324 324 324 324 325 326 326 327 327 326 327 326 325 324 324 323 322 323 323 323 323 323 323 322 321 319 318 320 323 324 324 324
327 327 327 326 325 326 327 329 331 331 330 329 330 330 330 329 328 329 329 330 331 332 332 331 330 329 328 329 328 328 327 327 327 327 327 327 327 326 326 326 325 324 325 325 326 326 326 324 321 320 320 322 323 323 324 324 324 324 324 325 326 326 327 327 326 325 325 325 324 324 323 323 323 323 323 323 323 323 322 322 322 324 324 324 323
326 327 328 327 326 327 329 331 331 330 330 330 331 331 329 328 328 329 329 330 331 331 331 331 329 328 328 328 328 328 327 328 328 327 327 327 327 327 327 326 326 325 325 325 326 326 326 326 324 323 322 323 324 324 324 324 324 323 323 324 325 326 326 326 326 326 325 326 326 324 323 324 324 324 324 324 323 323 323 323 323 323 324 323 323
326 327 328 327 327 328 330 331 331 330 329 329 329 329 328 327 328 329 328 329 330 331 331 331 329 328 328 328 328 327 327 328 328 327 327 327 326 327 327 326 326 325 325 326 326 326 326 326 325 325 325 325 325 325 324 323 323 323 322 322 324 325 326 326 326 326 325 325 325 323 322 323 324 324 324 323 323 323 323 323 323 323 324 324 323
326 326 328 328 328 330 330 331 331 329 328 329 329 328 326 327 329 329 329 329 330 330 331 331 329 328 328 328 328 328 328 327 327 327 328 327 327 327 327 326 326 326 326 326 326 326 325 325 325 325 325 325 325 325 324 323 322 322 322 322 323 324 325 326 326 326 324 322 321 319 320 321 322 323 323 323 323 323 323 323 324 323 323 320 317
328 329 330 330 329 330 330 330 330 329 328 329 329 327 326 327 329 330 330 331 330 329 329 330 330 329 328 328 328 328 327 326 326 327 328 327 327 327 327 326 326 326 327 327 326 326 326 325 325 325 325 325 325 325 325 324 322 321 321 321 321 322 322 323 323 322 319 315 314 315 316 317 319 321 322 323 322 322 322 321 320 318 315 311 308
330 330 330 329 329 330 330 330 330 329 329 330 330 329 328 328 328 330 331 331 330 329 328 329 330 330 329 328 328 328 326 325 326 327 327 327 327 327 326 326 326 327 327 327 326 326 326 326 326 326 326 325 325 325 324 323 322 321 321 321 321 318 314 313 313 311 309 308 309 310 310 311 313 315 317 317 316 315 314 312 310 309 307 306 306
329 329 329 329 329 330 329 330 330 329 329 329 330 330 330 329 329 330 330 330 330 330 329 328 329 329 329 328 328 328 326 326 326 326 327 327 327 327 327 327 327 327 327 326 326 326 326 326 326 326 326 325 325 324 323 322 320 318 317 318 318 313 308 306 306 305 305 306 306 307 307 307 307 309 310 309 308 308 308 307 307 307 307 308 308
330 331 331 330 329 329 329 330 330 329 329 329 329 330 331 331 330 329 329 329 329 330 329 327 327 328 327 327 327 327 327 327 327 326 326 326 327 327 327 327 327 326 326 326 326 326 326 326 326 326 325 325 324 323 322 321 318 313 310 311 310 308 307 307 308 308 308 308 308 308 308 308 308 308 308 308 308 308 308 308 309 309 309 308 308
331 332 330 328 328 329 330 330 331 330 330 331 330 330 330 330 330 330 329 329 329 329 329 328 328 328 328 327 327 327 328 328 328 327 326 326 326 327 327 327 326 326 326 326 326 326 326 326 325 325 325 325 324 322 321 320 316 310 307 307 307 308 309 309 309 309 310 310 309 310 309 309 309 309 309 309 309 309 309 309 308 308 307 307 306
331 331 329 328 328 329 330 330 331 330 330 331 330 330 329 329 330 329 329 329 329 329 329 329 329 329 328 328 328 327 327 327 327 328 326 326 327 327 327 326 325 325 325 325 326 325 325 325 324 323 323 324 323 321 319 317 314 310 308 308 309 309 309 309 309 309 309 309 308 308 308 308 308 307 307 307 307 307 307 307 306 306 305 304 303
330 330 330 328 327 328 328 329 330 329 329 330 330 330 328 327 328 328 327 328 328 328 329 329 328 329 327 327 328 328 327 327 327 328 327 327 326 326 326 325 323 324 324 324 325 324 323 322 321 320 320 322 322 320 318 315 312 309 309 309 309 309 309 309 309 308 308 307 307 306 305 305 305 304 304 304 304 304 304 304 303 303 302 302 302
330 330 330 329 326 325 325 326 329 328 327 329 329 329 328 326 327 327 326 327 327 327 328 328 328 328 327 327 328 328 327 327 327 328 328 327 327 325 324 323 323 323 323 324 324 323 323 321 320 319 320 321 321 319 316 314 311 309 309 309 309 309 309 308 308 307 306 305 304 304 303 303 303 302 302 302 302 302 302 302 302 302 302 302 302
329 329 329 328 325 324 323 323 326 325 325 328 329 329 329 327 326 325 326 327 326 326 326 326 327 327 326 326 327 327 327 327 327 328 327 327 326 324 323 322 322 322 323 323 323 323 323 321 319 319 320 320 320 318 315 312 310 309 309 308 309 308 308 307 306 305 304 304 303 303 302 302 302 302 302 302 302 302 302 302 302 302 302 302 302
327 327 326 325 325 325 323 321 324 324 323 326 328 329 329 327 327 326 326 327 326 326 326 326 327 327 326 326 327 326 327 327 327 327 327 327 326 323 322 322 322 322 323 323 323 323 322 320 317 317 320 320 318 317 313 311 310 309 308 308 308 308 307 306 305 304 304 304 303 303 303 302 302 302 302 302 302 302 302 302 302 302 302 302 302
326 325 324 324 324 324 325 323 323 323 323 324 326 328 328 328 328 327 326 327 327 326 326 325 326 326 326 326 326 326 327 327 326 327 327 327 326 323 321 322 322 322 323 323 323 322 320 319 317 316 318 320 319 315 312 310 310 309 308 307 307 307 307 306 305 305 305 305 305 305 304 304 303 303 302 302 302 302 302 302 302 302 302 302 302
326 325 324 324 324 324 326 324 322 321 322 322 324 326 326 326 327 327 326 326 326 326 325 325 326 326 326 326 326 326 327 327 326 327 327 326 326 324 322 321 321 321 322 322 320 320 318 317 317 315 316 319 318 313 310 310 309 309 308 306 307 308 307 306 305 306 306 306 306 306 306 305 305 304 303 303 303 302 302 302 302 302 302 302 302
325 326 323 322 324 324 324 323 319 318 319 320 322 323 322 323 325 326 327 326 325 326 326 326 326 326 327 327 326 326 326 327 327 327 327 326 326 324 322 321 321 321 321 320 318 318 317 317 317 315 315 317 316 311 310 310 308 308 307 307 308 308 308 307 307 307 308 308 308 308 307 307 306 306 306 305 304 303 303 302 302 303 303 303 303
325 324 320 320 323 324 324 322 319 319 322 323 322 320 319 321 324 324 325 325 325 325 326 327 327 326 327 327 326 326 327 327 327 326 327 326 325 323 322 322 322 321 320 319 317 317 317 316 317 315 313 314 315 312 310 309 307 307 307 308 309 309 309 308 308 308 309 309 309 309 309 309 308 308 308 307 306 305 304 303 303 303 303 303 303
325 322 319 321 323 324 324 322 320 323 326 325 323 319 318 320 321 321 322 323 324 325 326 327 327 326 327 327 326 326 326 326 326 326 326 325 323 322 323 323 322 320 319 319 318 317 317 317 316 315 312 311 312 312 310 308 307 307 307 309 310 310 310 309 309 309 309 309 309 309 309 309 310 309 309 309 308 307 306 305 304 303 303 303 303
325 322 321 322 322 323 322 320 322 326 326 326 324 320 320 321 320 320 322 322 323 325 326 326 327 327 326 326 327 326 326 326 326 325 324 323 322 322 321 321 321 320 320 319 317 316 316 316 315 315 313 311 310 310 309 307 307 307 307 309 310 310 310 310 309 310 309 310 309 309 309 310 310 310 310 310 309 308 308 307 306 305 304 304 303
325 323 323 323 323 323 318 316 323 326 325 325 324 321 322 323 322 322 323 324 323 322 324 326 327 327 326 326 327 326 326 326 324 323 322 322 322 321 319 319 320 321 320 319 318 316 316 316 315 314 314 312 310 309 308 308 308 308 308 309 310 310 309 310 310 310 310 310 309 309 309 310 311 311 311 311 311 310 310 309 308 307 307 306 305
324 324 325 325 324 321 316 316 322 324 323 325 324 322 323 323 322 322 323 325 324 321 322 326 327 327 327 326 327 326 326 325 322 322 322 321 321 320 319 319 319 319 319 318 318 317 315 315 314 313 312 312 311 310 311 311 311 311 311 311 311 310 310 311 311 311 310 310 310 310 310 311 311 311 311 311 311 311 311 311 311 310 310 309 308
323 326 326 325 324 322 319 318 320 322 323 323 323 322 322 321 321 322 322 324 323 321 323 326 326 327 327 326 327 326 325 323 322 321 321 320 320 319 318 318 318 319 318 318 317 316 315 314 313 313 312 311 312 312 312 312 312 312 312 312 312 312 312 312 312 312 312 311 312 312 312 312 312 311 311 311 311 312 312 312 312 312 312 312 311
322 327 325 323 324 323 321 319 320 323 324 322 322 323 322 320 321 322 323 323 322 322 323 325 325 326 327 326 326 325 323 322 321 321 320 321 320 318 318 318 318 318 318 317 317 316 316 315 313 312 312 312 312 312 313 313 313 313 313 313 313 313 313 313 313 313 313 313 313 313 313 313 313 313 312 312 312 311 312 312 312 312 312 312 312
323 327 324 323 323 323 321 318 320 324 323 321 323 323 321 320 320 321 322 322 322 323 323 323 325 326 326 325 324 323 322 321 321 320 320 320 320 319 319 319 318 318 318 318 318 317 317 317 315 312 312 312 312 312 312 313 313 313 313 313 313 313 314 314 314 313 314 314 314 314 314 314 314 314 313 313 312 312 311 312 312 312 312 312 312
325 326 324 324 324 322 320 318 320 323 322 321 322 321 319 319 319 320 321 321 322 323 322 321 323 325 325 324 323 322 322 322 321 320 320 320 320 319 319 319 318 318 318 319 319 318 318 319 317 315 314 314 312 312 313 313 313 313 313 313 313 313 313 314 314 314 314 314 314 314 314 314 314 314 314 314 314 313 312 312 312 311 311 311 311
325 325 324 324 324 320 318 318 321 323 322 320 322 321 319 318 318 318 320 321 322 323 322 321 322 323 323 322 322 322 322 321 321 320 320 319 320 320 319 319 319 319 319 318 319 319 318 319 319 318 318 316 314 313 314 313 313 313 313 313 313 313 313 314 314 314 314 314 314 314 314 314 314 314 314 314 314 314 313 313 312 312 312 311 311
325 325 324 323 322 319 318 318 319 321 321 320 321 320 319 317 317 318 320 321 321 321 322 321 321 323 322 321 321 321 321 321 321 321 320 319 319 320 319 319 319 319 319 319 319 319 319 319 319 320 320 318 317 316 314 313 313 314 315 315 315 315 314 314 314 315 315 315 314 314 314 315 315 314 315 315 315 315 314 314 314 314 313 313 312
323 323 322 322 322 319 318 318 317 319 320 320 320 320 319 318 317 318 320 320 320 320 321 321 321 322 321 320 321 321 321 321 321 320 320 318 318 318 318 318 319 319 319 319 320 320 319 319 319 320 320 319 319 318 316 315 315 316 317 317 316 316 316 315 315 315 315 315 314 314 315 315 315 315 315 315 315 315 315 314 314 314 314 314 313
321 321 320 322 321 319 319 318 317 317 319 319 320 319 318 318 319 319 319 319 319 319 320 320 320 321 320 320 321 321 321 321 321 321 320 317 316 316 317 317 318 319 319 319 320 320 320 319 319 319 319 319 319 319 318 318 318 318 318 318 317 317 317 316 316 316 316 315 315 315 315 315 315 315 315 315 315 315 315 315 315 314 314 314 313
321 321 320 320 320 319 319 318 317 317 318 318 319 319 319 319 319 319 319 319 319 319 319 320 320 320 320 320 320 320 319 319 319 319 318 316 315 316 317 317 317 318 318 317 318 319 319 319 319 319 319 319 319 319 319 319 319 318 318 318 317 317 317 317 316 316 316 316 316 316 316 316 315 315 315 315 315 315 315 315 315 314 314 314 313
321 320 319 319 320 320 319 318 318 318 317 318 318 319 319 320 320 320 320 319 319 319 319 319 319 319 320 320 320 320 320 319 318 317 316 315 315 315 316 316 317 317 317 316 316 317 317 317 317 317 318 318 318 318 318 319 319 319 319 319 318 318 317 317 317 317 316 316 316 316 316 316 316 316 316 315 315 315 315 315 315 315 315 314 313
320 320 319 320 320 320 319 319 318 318 318 318 318 318 319 319 320 320 320 319 319 319 319 319 319 319 320 320 320 320 320 320 320 319 319 318 318 317 317 317 317 318 318 317 317 316 316 317 316 317 317 317 317 317 317 318 318 318 318 318 318 318 318 318 317 317 317 317 317 317 317 317 316 316 316 316 316 316 315 315 315 314 314 314 313
319 320 319 319 320 320 319 319 319 319 318 318 318 318 319 319 320 320 319 319 319 319 319 319 319 319 319 320 320 321 320 320 320 321 320 320 320 319 319 319 318 318 318 318 317 316 316 316 316 316 317 317 317 317 317 317 318 318 318 318 318 318 318 318 318 318 317 317 316 317 318 317 317 317 317 316 316 316 316 315 314 313 313 313 312
320 320 320 320 320 320 319 320 320 319 318 318 318 318 318 319 320 320 319 319 319 318 318 318 319 319 319 319 320 319 319 318 319 320 319 318 318 319 319 319 318 318 317 317 317 316 316 316 316 316 317 317 316 316 316 317 318 319 319 318 318 318 318 318 318 317 317 316 316 316 317 317 316 316 315 315 315 315 315 315 314 313 312 311 311
320 319 320 320 320 319 319 318 316 313 312 313 315 316 316 317 318 319 319 319 319 317 315 315 315 315 316 316 316 317 316 315 315 317 318 317 317 317 318 318 318 318 318 318 317 317 317 316 316 316 315 315 316 316 316 317 318 319 318 316 316 318 318 317 317 316 316 316 316 316 316 315 314 314 315 315 315 315 315 314 314 313 312 311 310
315 314 315 316 317 317 316 315 312 310 309 310 311 311 312 313 315 317 317 316 315 313 312 311 311 311 312 312 312 313 313 312 312 315 318 318 317 317 317 317 317 317 317 317 316 315 315 315 315 315 316 315 316 316 316 317 317 318 317 316 316 316 316 315 315 314 313 313 313 313 313 313 312 312 312 312 312 313 313 313 313 312 312 310 309
315 313 313 314 315 315 315 314 313 311 311 310 310 309 310 310 311 312 312 312 311 310 310 310 310 311 311 311 312 313 313 314 314 316 317 317 316 316 315 315 315 314 314 314 313 312 312 312 313 314 314 314 313 313 313 314 314 315 316 315 315 315 315 315 314 314 313 312 310 310 310 310 309 310 310 311 312 312 312 313 312 311 309 307 306
Wind_Speed
10 9 9 7 6 4 2 4 7 6 7 9 9 8 8 9 8 8 8 8 7 7 9 8 5 2 2 4 7 8 10 9 7 7 5 3 2 1 1 1 2 3 3 4 3 4 5 5 6 7 7 7 7 6 6 6 6 6 6 6 7 7 8 8 9 9 8 8 9 9 9 9 10 10 10 11 12 12 12 12 12 12 12 13 13
11 11 10 9 7 5 4 5 5 5 5 6 8 7 7 8 6 7 7 8 9 10 10 8 9 6 3 3 5 7 8 7 6 6 6 4 3 2 0 1 2 3 4 4 4 5 6 7 8 8 8 8 7 6 6 6 5 5 6 6 6 7 8 8 8 8 8 8 8 8 9 9 9 10 10 11 11 12 12 12 12 12 12 12 13
13 12 11 10 9 7 7 8 7 6 6 5 6 6 7 7 7 8 9 11 10 9 9 8 8 6 4 4 4 6 7 6 5 5 7 5 4 2 1 2 3 4 5 5 5 7 9 10 10 10 10 9 8 7 6 6 5 6 6 6 6 7 8 8 8 8 8 8 8 9 9 9 9 10 10 10 11 11 11 12 12 12 12 12 13
13 13 12 12 12 11 10 10 9 9 7 5 5 6 8 7 7 9 9 11 9 9 8 6 6 4 4 5 5 6 7 6 5 5 6 5 4 2 1 2 4 5 5 6 7 9 10 10 11 11 10 9 8 7 7 7 6 6 6 6 6 7 8 8 8 9 9 9 9 9 9 10 10 10 11 11 11 12 12 12 13 13 12 13 14
14 14 13 12 12 12 11 11 10 9 7 6 8 8 8 7 8 9 8 7 8 9 6 4 5 3 4 5 6 7 7 7 6 4 4 4 3 2 2 2 3 5 6 6 7 8 9 9 10 10 10 9 9 9 8 8 8 8 8 8 8 9 9 10 10 10 10 10 10 11 11 11 11 11 11 12 12 12 13 13 13 13 13 14 15
16 15 14 12 12 12 12 12 11 10 8 9 11 10 9 8 8 7 7 6 7 7 5 4 5 5 5 6 8 9 8 7 6 5 5 3 2 3 3 3 4 5 7 7 7 7 7 8 8 8 10 11 11 11 11 11 11 11 12 12 13 13 13 13 13 12 12 12 12 12 12 12 12 12 12 12 13 13 13 13 13 14 14 15 15
17 16 14 14 13 12 13 12 12 11 10 11 12 11 10 8 7 6 5 5 5 6 6 5 6 7 7 7 8 9 8 7 7 7 6 4 3 3 2 3 4 5 7 7 7 8 8 8 8 8 10 12 13 14 14 14 14 14 15 15 16 16 16 16 15 15 14 14 14 13 13 12 12 12 12 12 13 13 14 14 14 14 15 15 16
18 17 15 14 13 12 12 12 11 11 10 11 11 11 10 8 8 6 5 5 4 5 6 5 6 8 9 8 8 8 7 7 7 8 6 5 4 2 3 3 4 5 6 6 7 8 8 8 8 9 10 11 12 13 13 13 13 14 14 15 15 15 16 16 16 15 15 14 14 13 13 12 12 12 12 12 13 14 14 14 14 15 15 16 16
18 17 16 14 14 12 11 11 11 12 10 10 10 10 8 7 8 7 7 7 5 5 5 5 8 9 8 7 7 7 6 6 7 7 6 5 4 4 5 5 6 6 6 6 6 7 8 8 9 9 9 8 8 9 9 9 9 10 11 11 11 12 12 13 13 13 13 14 13 13 13 13 12 12 12 13 13 13 14 14 15 15 15 15 16
17 17 17 14 13 12 12 11 12 13 10 8 8 7 7 7 7 7 7 7 7 7 6 7 9 8 7 7 6 6 6 5 6 7 6 6 5 6 6 6 6 7 6 6 6 6 8 9 9 9 8 7 7 6 6 6 6 6 7 7 7 8 9 10 10 10 11 11 12 12 12 12 12 12 13 13 13 13 14 14 14 15 15 15 15
16 15 16 14 12 12 14 13 13 14 9 8 9 8 7 8 7 7 7 6 6 8 9 10 9 9 9 9 7 7 7 6 6 6 6 6 6 6 7 7 7 7 7 7 7 7 8 9 10 10 9 8 7 6 6 6 5 4 4 4 4 5 7 8 8 9 9 9 10 11 11 12 12 12 13 13 13 13 13 14 14 14 14 14 14
16 14 14 14 13 14 15 14 13 12 9 10 11 10 8 8 9 8 7 7 7 8 10 10 12 13 11 10 10 9 8 7 6 6 6 7 7 7 7 8 8 8 8 8 8 8 8 9 9 10 9 8 7 6 5 5 5 4 4 3 3 4 5 5 5 6 7 8 8 8 9 10 11 11 12 13 13 14 14 13 13 13 13 12 12
16 15 14 13 14 14 14 14 12 10 10 11 11 10 9 8 9 10 8 8 9 9 10 11 13 15 14 13 11 10 9 8 8 7 7 6 7 7 7 8 9 9 9 9 8 8 8 8 8 9 9 8 7 6 5 5 5 5 4 4 3 4 4 4 4 4 5 5 6 6 7 8 8 8 10 11 12 12 12 12 11 10 10 10 10
15 15 13 12 14 14 13 12 11 9 10 12 11 10 10 10 10 11 10 8 9 10 10 11 12 14 16 16 13 10 10 9 8 7 6 6 7 7 8 9 9 9 9 9 9 8 8 8 8 8 8 7 7 6 5 4 5 5 5 4 4 4 5 4 4 4 3 3 4 4 4 5 5 6 7 7 8 9 9 9 8 7 7 8 8
14 13 12 11 13 14 12 10 9 10 11 12 11 10 10 11 11 13 13 11 10 11 11 10 11 13 16 16 14 13 11 9 8 7 6 8 8 8 8 10 10 9 9 9 8 8 9 9 8 8 7 6 6 5 5 5 6 5 5 5 4 5 5 5 4 4 4 3 2 2 3 4 5 6 5 5 5 5 6 6 6 5 5 6 7
12 11 12 11 12 13 10 9 9 10 11 12 11 10 11 12 12 14 14 12 12 13 13 11 11 14 15 15 15 13 11 11 11 9 8 8 8 8 9 9 10 10 8 8 8 8 9 9 8 7 7 6 5 5 5 5 5 5 5 5 5 6 7 6 6 5 4 5 4 2 3 5 5 6 6 5 5 5 5 5 6 6 6 6 7
13 12 12 12 12 11 10 10 11 11 11 12 11 11 11 12 14 15 13 11 12 14 14 12 11 11 13 15 13 10 11 13 12 11 9 9 9 8 8 9 9 8 8 8 9 9 9 7 6 6 6 6 5 5 5 5 5 5 5 6 7 8 9 9 9 7 6 6 6 5 6 6 6 7 7 7 7 7 8 8 9 8 7 7 8
14 14 14 14 12 10 10 11 12 11 11 12 12 12 13 13 14 13 12 11 12 14 15 14 13 11 11 12 9 8 13 16 13 12 11 10 9 8 8 8 8 9 9 9 9 9 8 6 6 6 6 6 6 5 5 6 6 7 8 8 9 10 10 11 11 11 10 9 9 8 8 8 9 9 9 10 9 9 9 9 9 8 8 7 7
15 16 15 13 12 11 11 11 11 12 12 11 12 12 12 13 14 13 12 12 12 13 14 16 16 13 11 9 6 7 12 13 13 15 16 12 9 9 9 9 9 9 8 8 8 8 8 6 6 6 6 6 6 6 7 8 9 10 10 10 9 9 10 11 11 11 10 10 9 9 9 10 11 11 11 11 10 10 9 9 8 7 7 7 7
16 16 14 12 12 13 12 12 12 12 12 11 11 12 11 12 14 14 13 13 12 12 13 15 16 14 13 9 7 11 12 9 9 12 17 17 12 10 10 10 9 9 8 8 8 7 7 6 6 6 6 6 7 8 9 10 12 12 11 11 10 9 10 11 11 10 9 9 9 8 9 10 10 11 11 10 10 9 9 8 7 7 6 6 5
16 16 15 13 14 14 13 13 13 13 12 12 12 12 12 12 13 14 14 14 12 11 12 14 14 14 14 11 11 16 14 11 9 9 14 18 15 13 13 12 11 10 10 9 9 8 8 8 8 7 8 8 8 9 10 11 12 12 11 10 10 10 10 9 9 8 7 7 7 7 8 8 8 8 8 8 8 7 7 6 6 5 5 4 3
17 17 15 14 15 15 14 14 13 13 12 13 13 13 13 12 11 12 13 13 13 12 12 13 13 14 14 12 14 17 16 15 13 12 13 16 16 17 15 13 13 12 11 9 9 10 9 8 8 7 7 7 8 9 10 11 11 11 11 10 10 9 8 8 7 6 6 5 5 6 6 6 6 6 6 6 5 5 5 4 4 3 3 3 3
18 16 14 13 15 15 14 15 14 13 13 12 12 13 13 12 11 12 12 12 13 13 13 12 13 14 14 13 14 15 15 15 15 15 15 15 17 18 14 12 13 13 12 10 8 9 9 6 4 5 6 5 7 10 11 10 10 10 10 10 9 8 7 6 6 5 4 4 4 5 5 5 5 5 5 4 4 4 3 3 3 3 3 3 3
18 16 14 13 14 15 15 16 15 14 13 12 11 12 13 13 12 12 12 12 13 13 13 13 13 14 14 13 13 13 13 13 14 15 14 13 16 18 15 14 15 15 13 11 11 9 6 5 5 4 3 4 8 10 10 10 10 10 10 9 8 7 6 5 4 4 4 4 4 5 5 5 5 5 5 5 4 4 4 3 4 3 3 3 3
19 18 16 14 15 15 14 15 15 13 12 12 11 12 12 13 12 12 12 12 13 13 13 13 12 13 13 13 14 13 13 13 15 14 12 13 16 17 17 17 18 18 15 13 15 12 6 4 5 3 0 5 9 11 9 9 9 9 9 8 7 6 5 4 4 4 4 5 5 6 6 6 6 6 6 6 5 5 4 4 4 4 4 4 4
19 19 17 15 15 14 13 14 14 13 12 11 11 11 11 12 12 12 12 11 11 13 13 13 13 13 13 13 14 14 13 15 16 15 14 16 16 17 21 21 19 19 17 16 17 15 11 6 1 1 3 7 10 10 9 9 9 9 8 7 6 5 5 5 5 6 6 7 7 7 7 7 6 6 6 5 5 4 4 4 3 3 3 3 3
18 19 17 14 14 13 12 12 13 13 12 11 11 11 11 11 11 12 12 11 11 12 12 13 14 13 13 13 14 14 14 15 16 15 15 15 14 17 24 25 22 19 18 18 18 16 15 11 4 2 4 8 9 9 9 9 8 8 7 5 5 5 6 6 7 7 7 8 8 8 7 7 6 6 5 5 4 3 3 3 2 2 2 2 3
16 17 16 13 13 14 12 11 12 12 12 11 11 11 11 11 11 11 11 11 12 12 12 13 13 13 14 14 14 15 16 16 16 16 17 16 14 16 22 25 24 23 20 18 19 19 16 12 7 6 5 7 9 9 9 9 8 7 6 5 5 6 7 7 7 7 7 7 7 7 6 6 5 4 4 3 2 2 2 1 1 1 2 2 3
15 15 15 14 14 14 12 11 11 12 12 11 11 12 11 11 10 11 10 11 12 12 11 11 13 13 14 15 15 15 17 18 18 18 19 19 16 15 18 20 21 23 23 22 22 22 19 13 7 5 6 8 9 10 10 9 8 7 6 6 6 6 7 7 7 6 6 5 5 5 5 4 4 3 3 2 2 1 1 2 2 3 4 4 5
16 15 15 14 13 12 12 10 10 11 12 11 11 12 11 10 11 11 11 12 12 11 10 10 13 14 14 15 15 16 17 18 18 18 19 19 17 16 17 17 17 20 24 25 24 21 18 15 10 5 5 10 11 10 11 9 8 7 6 6 6 6 6 5 5 4 4 4 3 3 3 3 4 4 4 3 3 3 3 4 4 5 5 6 6
16 15 14 14 13 12 11 9 10 12 12 11 10 11 11 11 12 12 12 12 11 11 10 10 12 14 14 15 16 16 17 17 16 16 18 18 16 17 16 15 17 20 21 24 23 19 16 14 12 5 3 10 13 11 10 10 8 7 6 6 6 5 5 4 3 3 2 1 1 2 2 3 3 4 4 4 4 4 4 4 4 5 5 5 6
14 13 14 15 15 13 10 9 12 15 13 10 9 10 12 12 12 11 11 10 10 11 11 11 12 14 15 15 15 15 17 17 14 14 18 18 17 17 13 12 16 20 20 20 18 17 17 14 10 6 3 7 11 11 10 10 8 7 6 7 7 6 5 4 4 4 3 3 3 3 3 3 3 4 4 4 4 4 4 4 4 5 5 5 6
13 13 15 16 15 12 9 10 15 16 14 12 10 11 13 13 11 11 10 9 9 9 11 11 11 14 15 15 13 14 16 16 14 15 18 19 16 13 9 11 19 22 20 18 16 16 17 13 11 8 6 5 7 10 11 10 9 7 7 9 9 7 6 6 6 6 6 6 6 5 5 4 4 5 5 5 5 5 6 6 6 6 6 6 7
13 14 15 14 12 9 8 13 17 16 15 13 11 12 13 12 12 10 8 9 8 6 9 10 11 15 16 15 13 13 13 14 16 17 17 15 12 10 7 9 17 22 20 18 17 17 16 14 13 10 7 6 6 9 11 8 6 5 6 8 9 8 7 7 7 8 8 8 8 7 6 6 6 6 7 7 7 7 7 7 7 7 8 8 8
14 15 14 12 10 8 9 13 15 16 16 15 12 12 13 12 10 5 7 11 8 5 6 9 13 16 16 14 14 14 15 16 18 16 13 12 11 11 12 11 11 15 17 16 16 15 15 14 14 12 9 8 7 7 8 5 4 4 4 4 6 7 6 6 7 8 9 8 7 6 6 7 7 8 9 8 8 8 8 8 8 8 9 9 10
18 17 13 11 10 9 9 11 13 15 15 16 14 12 13 13 9 6 9 12 8 4 7 9 12 15 15 14 15 15 16 18 18 16 13 11 10 11 13 13 9 8 11 14 13 11 11 12 13 12 10 9 8 5 6 6 7 8 6 5 6 6 6 6 7 8 7 7 6 7 8 9 10 11 11 11 12 12 11 11 11 11 11 12 12
20 17 13 12 11 10 8 8 13 14 12 14 14 11 13 14 10 10 12 10 7 7 9 9 11 14 15 15 15 15 17 17 17 16 11 8 9 12 13 13 9 6 9 12 11 8 8 9 12 13 12 11 10 9 8 10 11 12 11 10 9 8 8 8 9 9 8 9 10 10 10 11 12 12 13 14 15 15 15 15 14 14 14 14 15
20 15 13 14 13 11 8 7 12 13 10 12 12 8 12 14 10 11 12 9 9 10 9 9 11 14 17 17 16 15 15 14 14 13 9 6 8 11 12 10 7 7 10 10 9 9 8 7 10 14 14 13 14 14 13 13 15 15 14 13 13 12 11 10 10 10 11 13 14 13 13 14 14 15 15 15 16 18 18 18 17 17 17 17 18
20 15 15 16 13 12 10 9 13 14 11 13 12 8 11 13 10 12 13 9 10 11 8 7 10 15 17 18 16 14 12 13 13 12 10 8 6 6 8 9 7 8 10 8 7 10 10 7 9 13 13 13 15 15 14 14 16 17 17 17 17 16 15 15 13 13 14 15 16 16 16 17 18 19 19 18 18 19 20 20 19 19 19 19 19
19 17 17 17 13 13 14 12 13 13 12 13 12 10 10 10 10 13 13 10 11 12 10 8 11 14 15 16 17 15 13 14 14 12 11 9 7 5 8 10 10 9 8 7 7 9 10 9 10 11 11 11 13 14 15 16 17 17 17 19 20 19 19 19 17 16 17 17 18 18 19 20 21 22 22 22 21 21 21 21 21 21 20 20 20
20 18 19 18 15 15 15 14 13 13 12 12 12 11 10 10 12 14 12 11 13 13 12 11 12 14 12 12 14 14 12 13 11 11 12 10 8 7 6 9 12 11 10 9 8 8 9 9 10 10 11 12 12 14 16 18 17 15 14 15 18 18 21 23 21 19 20 21 21 22 21 22 23 24 25 25 25 24 24 24 24 25 25 24 23
19 19 20 20 16 15 14 13 14 13 12 12 12 12 11 11 13 14 12 13 13 12 14 14 12 13 13 11 11 11 10 11 10 10 11 11 9 9 8 8 9 11 12 11 10 9 9 8 9 9 10 12 12 13 16 18 17 16 15 14 14 14 16 22 23 22 23 23 24 25 24 24 25 26 27 27 27 27 27 27 27 28 28 27 26
20 20 22 21 17 16 15 13 14 14 13 13 12 12 12 11 13 15 13 13 13 11 12 12 10 11 11 10 9 9 8 9 9 9 9 9 9 9 9 9 8 9 11 12 11 11 10 9 10 9 10 10 10 11 13 16 18 20 20 19 18 17 17 18 20 20 20 21 22 24 24 23 24 26 27 28 28 28 28 28 28 28 28 28 27
22 21 22 21 17 16 16 14 14 14 14 13 12 13 13 12 13 15 14 14 14 11 11 13 12 10 10 10 9 9 8 9 9 10 10 9 9 10 10 10 9 9 9 10 10 11 11 12 12 12 12 12 12 12 12 14 17 19 20 20 22 23 23 23 22 20 19 20 21 23 23 22 22 25 27 27 27 28 28 28 28 29 30 29 28
23 22 22 21 17 16 17 15 14 15 14 14 14 14 15 14 13 15 16 16 16 15 14 15 15 12 12 13 13 11 9 9 9 10 10 10 10 10 10 11 11 11 11 10 10 11 12 14 15 15 14 14 15 15 15 15 16 18 19 19 20 22 23 24 24 22 21 22 22 23 23 22 22 25 28 29 29 29 29 29 29 30 32 32 30
24 23 22 21 17 17 17 15 14 15 15 14 14 14 15 15 14 15 17 16 15 16 15 13 13 13 13 13 13 11 9 9 8 7 7 7 7 7 8 9 10 11 11 11 11 12 13 15 16 17 17 17 18 19 19 19 20 20 21 21 22 22 23 24 24 24 23 23 24 25 25 24 24 27 29 30 30 30 30 29 28 29 31 32 31
24 23 21 20 18 16 16 15 14 14 14 13 14 14 14 15 15 16 17 16 14 14 12 11 9 8 8 8 8 8 7 7 7 5 5 6 7 8 8 9 10 11 12 12 13 15 16 17 18 19 20 21 21 22 22 22 23 23 22 23 23 23 25 26 27 27 26 25 25 27 28 28 27 29 31 31 29 30 30 29 28 28 29 28 27
23 22 20 18 17 16 15 14 13 12 13 13 13 13 13 13 15 16 16 16 15 13 10 10 8 6 5 4 4 4 3 2 2 4 6 8 9 11 12 12 13 13 14 16 17 18 19 20 20 21 22 22 22 21 21 22 22 23 24 23 21 22 25 26 28 29 28 28 27 28 30 31 29 29 31 30 29 30 30 29 29 27 26 26 25
21 19 18 16 15 14 13 12 11 10 11 12 12 13 13 13 14 15 15 16 16 13 9 9 10 9 7 6 6 5 4 5 9 10 11 12 12 14 14 15 16 17 18 19 20 20 21 22 21 21 20 20 20 20 20 20 21 24 26 23 20 22 25 26 28 29 29 29 28 28 30 32 29 28 28 28 29 30 30 30 29 28 27 27 25
18 16 15 14 13 12 11 10 10 10 10 11 12 13 14 14 14 15 15 15 14 13 12 13 12 11 10 9 9 9 9 10 14 16 15 15 15 16 16 17 18 19 20 20 20 19 19 19 18 18 17 17 17 18 19 19 20 23 25 23 21 23 25 26 27 27 27 28 26 25 27 30 28 28 28 30 32 33 33 32 30 28 28 26 23
15 14 12 12 11 11 10 10 10 11 11 11 12 13 14 14 13 12 12 12 11 12 14 14 13 12 12 11 11 12 12 13 16 18 18 17 17 17 17 17 18 19 19 19 19 18 18 17 17 17 17 17 18 19 20 21 22 23 24 24 24 25 26 27 27 26 28 30 27 24 26 30 31 32 33 33 33 32 31 30 28 25 21 17 16
Wind_Direction
199 196 186 173 170 154 137 152 136 127 154 162 148 149 160 156 153 154 154 147 145 183 211 227 229 224 190 181 197 218 239 247 255 254 247 251 241 229 177 96 77 73 68 69 67 69 72 70 70 67 66 65 65 67 70 72 72 76 79 80 79 79 81 81 84 86 86 85 85 85 84 84 84 81 78 77 77 76 74 71 70 70 70 69 68
200 202 197 187 176 155 152 155 140 126 137 150 140 142 150 145 155 148 140 154 170 196 208 222 229 224 212 178 183 205 224 236 247 239 233 238 231 233 199 86 84 85 80 87 91 93 91 86 83 76 73 71 69 72 76 82 84 84 83 81 82 85 86 83 84 86 87 87 86 86 83 82 82 80 78 77 78 77 76 75 73 73 72 70 69
202 201 197 189 183 179 181 172 167 165 166 176 160 163 163 158 168 152 160 181 179 196 209 226 232 221 208 201 198 208 216 222 223 217 226 234 222 222 183 89 88 91 92 104 114 112 104 96 89 80 75 72 70 75 80 88 90 90 89 86 87 88 90 89 88 88 87 86 84 83 83 81 79 79 79 77 77 77 77 76 76 76 75 74 73
205 201 192 187 189 194 193 180 179 179 180 207 196 178 176 176 172 168 192 190 176 196 206 229 244 222 207 218 217 205 209 208 190 196 218 219 205 208 191 93 86 94 101 119 130 126 116 104 91 82 78 74 75 79 84 90 92 96 97 96 94 90 89 87 84 82 79 77 76 75 74 74 73 73 74 74 75 75 74 75 77 77 77 76 74
209 204 194 192 196 201 198 186 190 194 189 204 200 184 183 186 176 184 207 182 175 197 194 222 238 211 198 207 201 187 190 193 185 192 198 196 199 198 183 136 100 102 109 128 139 134 124 109 93 84 82 82 84 87 89 92 93 92 91 87 83 80 79 78 77 77 76 74 73 72 72 72 73 73 73 73 74 74 73 73 75 76 75 74 74
209 208 200 200 206 208 207 201 204 205 194 192 191 187 191 193 186 201 213 177 178 188 176 198 188 159 161 166 183 187 190 191 186 194 201 203 190 168 161 142 123 116 119 130 135 130 123 113 105 98 94 93 91 89 88 86 85 84 82 82 80 80 80 80 80 81 82 83 81 79 78 80 79 78 77 76 75 74 74 74 74 75 74 74 75
207 207 204 209 216 213 211 214 215 204 193 198 192 186 192 187 181 201 212 187 191 185 167 172 156 151 155 151 173 185 185 187 187 196 209 216 179 156 160 143 133 131 130 132 134 131 126 123 126 120 108 101 93 88 84 83 84 86 86 87 87 87 86 84 83 83 84 85 85 84 84 85 85 83 81 79 78 77 76 76 75 76 77 77 77
204 207 206 215 221 215 212 216 220 206 191 203 196 184 191 183 172 188 208 205 210 199 179 169 156 154 154 153 170 185 184 185 192 201 204 200 184 194 211 174 154 149 138 132 134 138 135 130 133 131 121 109 97 89 85 85 86 88 89 89 88 88 86 84 82 81 82 82 83 85 86 86 86 86 85 83 82 81 79 78 78 79 79 80 79
202 208 209 213 216 213 217 219 225 218 194 197 198 184 183 177 176 186 204 215 209 200 187 168 157 155 156 155 167 185 191 189 189 196 199 197 205 220 210 184 167 158 143 130 133 145 144 136 134 133 131 119 103 93 89 90 88 87 88 87 86 85 82 79 79 79 79 81 82 83 84 86 88 89 88 86 83 83 82 81 79 80 80 80 80
200 209 212 209 209 211 218 221 225 219 195 186 196 186 173 174 186 184 185 205 203 185 175 168 165 158 150 145 158 172 176 180 181 188 196 202 213 211 196 183 172 162 151 136 131 143 146 141 137 135 139 134 116 106 105 104 97 92 90 85 84 84 79 74 74 78 80 81 81 81 82 85 88 89 88 86 84 83 84 85 84 83 84 83 81
198 206 210 204 204 212 214 213 217 214 197 191 198 191 176 170 184 186 174 184 192 178 168 165 164 157 147 144 154 163 165 172 175 185 193 197 204 196 184 184 180 171 160 143 132 136 141 143 144 143 144 141 131 121 114 110 104 103 106 99 91 83 81 78 71 73 82 84 84 84 85 85 88 90 91 88 86 86 87 89 90 90 89 85 79
195 199 206 203 207 217 213 206 208 207 197 200 200 192 179 169 177 187 182 174 173 174 167 156 151 151 150 148 155 158 161 165 160 167 179 187 192 186 181 182 182 176 164 151 139 135 137 139 144 147 144 141 137 128 117 107 101 107 120 124 120 101 95 97 84 75 84 89 91 92 93 91 90 91 91 90 88 88 88 90 94 95 92 84 75
193 197 203 205 211 218 213 208 205 198 196 201 198 189 181 175 175 178 185 181 170 167 162 159 160 157 151 146 150 155 156 158 155 159 171 181 182 182 180 173 173 175 167 156 145 138 138 135 138 146 145 143 141 133 124 110 101 106 112 117 133 138 131 122 112 94 88 89 88 89 95 94 93 92 89 88 89 90 90 90 92 95 91 81 71
192 197 203 208 216 218 212 208 199 189 196 197 191 187 182 180 176 170 178 178 167 163 160 168 175 167 155 147 146 150 153 157 159 161 173 180 173 171 170 166 167 171 168 159 149 141 139 136 137 145 147 144 142 138 131 117 113 111 106 112 130 144 147 140 130 119 102 92 78 76 94 99 96 96 91 86 87 89 92 90 89 92 87 75 62
194 198 201 207 219 217 201 189 186 188 195 190 186 188 183 180 173 170 177 172 166 169 166 174 182 170 158 151 150 152 147 151 155 155 165 168 162 158 160 164 162 160 162 157 153 147 143 142 140 140 141 138 139 145 142 132 129 121 110 116 123 132 141 143 136 131 126 120 105 87 106 108 103 103 100 94 88 84 86 84 83 82 70 54 46
190 194 198 204 212 206 184 175 185 189 191 188 187 189 184 179 171 173 182 177 171 171 168 177 184 171 160 151 152 156 152 152 150 146 154 155 151 154 156 160 160 156 157 155 154 154 149 147 141 138 140 138 143 152 149 144 137 128 120 121 127 129 134 137 131 129 133 136 140 140 121 119 125 127 124 119 106 89 81 79 78 75 67 61 58
186 189 195 199 197 185 167 175 186 185 186 189 189 186 180 179 176 177 184 182 176 173 169 173 180 178 169 157 154 168 170 158 143 135 150 158 152 157 160 160 161 157 156 159 160 159 157 154 145 145 151 155 154 145 143 147 140 134 129 130 133 133 134 135 130 125 129 134 129 118 112 119 132 138 136 127 115 103 96 93 91 89 89 85 78
181 180 183 184 177 167 165 177 183 180 180 184 186 183 178 180 184 182 182 181 178 177 173 170 175 182 184 176 176 191 179 164 150 139 145 159 159 159 164 163 163 158 158 165 166 161 162 163 155 151 157 166 165 144 137 143 139 132 128 129 131 133 136 136 132 130 129 125 119 113 107 108 116 123 125 121 116 113 109 104 102 102 101 93 83
171 173 175 172 167 167 172 174 179 181 180 179 178 178 177 180 187 185 182 181 174 177 179 173 176 181 186 196 203 189 176 169 166 153 145 152 162 161 162 165 164 160 162 168 167 162 160 159 158 159 156 157 156 148 142 141 138 132 126 127 127 128 130 129 129 129 126 121 119 117 112 107 109 113 115 116 116 116 114 110 108 107 101 93 87
165 169 172 174 172 172 171 168 176 180 176 175 172 173 177 180 184 184 184 187 177 176 184 179 179 182 184 194 181 165 171 174 172 166 153 148 152 157 155 157 158 155 155 154 152 154 152 148 153 157 147 135 139 148 149 145 142 137 134 134 132 126 121 120 121 119 117 117 116 114 112 109 110 112 115 118 118 116 115 114 111 106 100 96 92
162 169 178 181 174 170 167 164 173 175 169 173 174 173 177 179 184 184 183 186 181 180 187 182 182 187 186 184 168 162 167 166 166 178 165 150 151 157 151 148 149 148 147 142 138 136 136 142 147 146 135 127 135 147 152 152 148 143 142 142 137 129 123 119 116 112 109 110 110 107 104 102 104 107 111 113 113 112 112 113 111 106 105 103 97
167 176 181 178 170 167 166 163 168 170 166 172 174 174 178 183 187 188 183 182 182 186 190 182 180 188 188 181 175 170 168 167 168 178 170 157 157 161 156 153 149 143 138 135 132 128 131 143 143 132 125 127 139 148 155 157 153 149 146 145 139 132 126 120 113 111 111 108 105 100 96 97 97 97 100 102 103 108 109 111 111 107 103 93 84
170 174 171 170 168 168 169 166 167 169 167 168 172 176 180 182 185 189 187 184 184 188 190 183 178 184 185 179 179 178 174 171 172 175 174 166 161 160 161 160 153 143 134 126 123 126 134 139 118 103 116 138 152 154 160 162 157 154 149 146 143 137 130 123 118 116 113 106 99 97 96 96 97 98 99 100 101 102 104 106 104 97 85 73 67
168 165 163 165 167 169 171 171 171 175 174 169 171 179 179 177 181 188 187 185 187 189 190 187 181 182 182 180 178 177 178 178 175 175 179 175 164 156 157 158 152 143 133 125 126 133 134 105 60 41 84 152 165 160 163 165 161 158 153 149 145 139 132 124 122 120 111 107 103 103 105 103 104 104 102 101 99 97 94 95 88 79 69 57 45
170 164 163 166 168 171 172 172 176 181 176 169 170 176 178 175 177 184 185 184 186 190 194 192 184 182 182 182 179 171 169 175 179 179 176 175 167 153 151 156 148 138 133 133 136 141 145 91 43 8 35 168 168 165 167 168 165 161 156 153 146 138 134 129 128 128 122 120 116 113 112 111 110 107 105 103 98 94 88 82 75 61 48 37 26
173 168 170 173 172 175 173 167 173 181 176 171 168 168 173 173 172 177 179 179 182 188 193 189 183 183 181 180 177 169 163 167 178 185 178 174 170 151 146 148 142 135 137 144 149 152 165 172 49 345 174 168 166 167 170 172 169 163 157 155 149 143 142 139 137 134 130 126 122 119 115 112 111 107 106 103 97 95 88 76 67 51 34 24 13
169 173 179 178 170 171 171 164 165 174 177 172 166 166 170 168 166 172 173 170 176 184 186 184 182 182 178 178 175 168 165 166 172 182 178 172 166 150 144 143 142 145 147 151 160 166 173 181 180 141 167 170 167 171 173 174 174 166 162 165 164 159 151 147 145 139 134 128 121 118 114 109 109 106 105 104 101 99 93 81 65 45 19 8 359
164 172 178 175 167 164 166 167 163 167 175 173 167 169 170 165 164 170 169 165 171 181 183 180 182 178 173 175 173 166 165 164 165 169 169 168 164 155 150 145 143 151 161 167 173 179 185 189 171 142 170 189 178 177 178 178 182 178 176 180 177 169 158 152 150 142 133 124 115 109 104 99 97 94 92 94 94 95 87 70 35 4 341 340 339
167 168 171 171 168 167 173 176 166 163 170 170 170 174 170 165 164 164 165 163 167 178 181 176 177 176 171 171 171 166 163 162 162 163 167 171 174 168 161 155 146 149 160 170 176 182 191 204 204 164 175 201 194 184 184 183 187 192 189 184 180 176 166 158 153 142 127 112 99 87 81 74 68 61 55 44 31 20 6 345 334 327 327 331 333
171 171 175 174 171 172 176 176 167 161 162 162 168 175 170 163 161 160 163 164 165 171 176 176 174 172 173 173 171 167 164 164 163 165 170 176 180 174 164 162 162 161 162 166 173 185 192 199 219 233 193 198 198 191 188 189 193 199 193 184 183 183 177 169 162 146 121 100 77 60 49 40 33 24 14 5 357 350 342 329 321 321 322 327 331
172 175 175 171 169 171 172 177 164 149 148 152 158 165 165 161 159 156 160 163 164 164 167 174 172 169 174 176 171 169 169 167 164 166 173 176 174 172 170 174 181 181 175 169 172 190 204 206 216 239 209 196 200 198 195 196 198 202 198 190 189 193 199 198 193 182 154 119 33 12 4 1 2 356 352 347 344 343 337 328 320 318 319 321 324
173 172 166 167 171 172 178 179 153 141 147 154 149 148 150 151 153 154 155 157 161 162 164 172 172 170 176 176 172 173 171 167 166 167 169 170 166 169 181 197 194 191 190 184 181 191 204 220 234 236 218 202 203 203 202 203 204 207 209 206 204 206 214 222 223 229 239 251 282 293 291 299 312 321 324 326 327 327 324 324 321 319 319 318 318
172 162 161 170 176 177 186 173 152 146 152 154 144 136 133 131 133 136 134 134 148 162 165 168 171 175 178 177 176 176 168 164 166 161 158 161 164 171 194 210 202 200 199 195 194 192 195 217 241 235 220 221 217 209 209 213 212 213 218 218 216 214 221 236 241 246 255 260 271 276 270 270 282 294 301 307 313 316 315 316 318 321 322 321 320
170 156 155 167 175 175 170 160 156 154 151 150 146 136 129 126 127 131 137 139 138 147 160 166 169 174 177 176 176 171 162 160 157 150 150 156 163 173 179 185 194 199 201 197 195 194 196 208 221 218 213 233 240 211 201 206 215 223 233 231 225 218 222 244 257 261 266 265 266 267 265 268 278 285 291 297 302 307 309 311 313 316 317 318 318
162 152 154 167 169 155 143 150 156 155 150 150 147 141 139 139 140 152 172 163 151 134 156 165 166 170 173 173 172 167 161 159 152 145 150 158 167 179 174 168 175 183 194 205 205 201 201 202 207 213 215 227 236 205 186 199 249 257 260 251 240 235 239 262 281 281 272 262 260 266 270 279 285 288 291 292 294 296 297 301 305 308 312 315 315
155 152 162 168 156 138 132 142 148 149 151 152 149 153 155 148 139 138 150 158 161 145 148 155 159 167 172 169 168 166 161 158 152 149 155 161 172 187 183 183 186 169 178 202 212 212 211 208 210 218 225 234 244 226 206 231 255 262 274 274 267 271 271 271 290 296 274 252 259 277 282 286 290 292 293 291 290 290 291 293 298 303 308 312 314
153 156 165 159 148 141 138 140 142 146 153 153 153 166 166 154 142 134 138 147 153 142 141 148 154 160 164 162 161 159 156 157 156 157 161 162 171 184 185 186 196 180 165 185 203 214 221 219 216 217 225 236 243 243 235 235 242 249 260 270 277 291 292 276 276 286 276 265 275 288 290 290 291 292 293 292 289 287 287 288 291 295 300 305 308
155 161 162 153 150 149 143 138 143 149 155 152 157 174 168 164 162 148 142 146 154 152 143 142 150 151 150 151 152 152 155 160 164 168 176 168 159 172 182 183 189 181 169 175 191 203 213 218 214 215 221 224 228 235 239 240 242 246 253 264 270 277 285 280 274 278 279 276 282 290 293 292 291 291 292 293 291 288 285 284 285 288 292 297 299
158 163 157 149 149 152 151 148 149 156 159 156 163 171 160 166 174 158 147 144 154 157 143 134 152 155 152 153 156 158 163 168 176 186 190 184 168 156 159 164 168 174 177 177 177 191 203 206 207 217 227 225 223 232 244 249 247 246 252 261 265 268 272 272 270 273 278 280 281 284 286 285 285 286 287 290 293 293 289 285 285 287 290 294 297
162 162 155 149 151 158 162 161 158 161 164 161 165 164 155 159 163 157 151 141 142 148 140 130 144 152 154 162 167 169 169 171 181 195 196 192 191 161 138 146 159 165 172 175 174 189 202 207 214 225 231 227 221 230 244 247 244 244 250 256 262 269 274 274 272 271 272 275 278 280 282 281 282 284 285 287 292 295 291 287 289 292 295 298 301
166 164 157 154 159 164 166 165 164 166 167 167 167 163 158 156 155 157 156 147 144 146 142 134 142 152 153 157 167 172 172 173 183 198 201 200 202 195 169 160 166 169 168 172 183 192 197 209 225 233 236 231 227 229 233 235 242 256 263 260 264 273 275 271 269 268 268 269 269 271 275 278 280 282 283 285 288 291 290 287 288 291 295 299 301
167 164 161 162 165 168 169 167 169 171 171 171 170 167 164 160 160 161 156 152 153 149 148 146 147 155 158 156 163 171 175 185 197 205 205 207 210 216 219 205 191 187 182 183 192 193 192 203 214 224 234 236 238 237 233 234 245 257 262 261 267 278 274 264 263 265 267 267 265 265 270 276 277 277 278 282 286 287 286 286 288 290 292 295 297
163 163 165 168 169 171 174 171 169 172 173 173 171 168 166 161 162 162 156 158 161 151 152 160 153 152 163 168 173 180 184 191 201 207 207 210 214 219 225 227 224 214 202 201 206 205 206 209 208 215 223 225 232 238 237 239 244 249 254 256 259 265 268 265 264 264 265 266 266 269 274 277 277 277 277 280 283 283 284 287 289 290 290 292 293
167 168 168 171 171 173 179 177 170 171 173 173 171 168 164 160 163 164 160 164 167 157 156 168 166 160 164 173 184 195 202 203 204 209 213 218 220 222 226 231 234 234 227 225 228 227 227 229 229 231 231 231 236 239 244 249 249 250 256 257 256 258 261 264 264 264 266 268 269 272 274 276 277 278 279 281 282 283 285 288 289 290 292 291 290
170 170 171 175 173 173 179 179 173 172 172 172 171 169 166 166 169 169 165 164 165 162 164 171 176 175 171 176 184 187 196 209 212 213 216 219 221 222 227 234 238 242 246 250 254 254 249 247 246 246 247 250 252 252 256 261 261 262 263 262 261 260 261 262 263 265 268 269 271 273 274 273 273 273 275 278 280 281 283 286 287 289 290 289 287
173 172 174 177 173 171 176 180 178 176 176 175 174 173 171 172 174 172 170 166 158 155 159 165 171 176 175 179 181 174 176 192 199 206 220 226 231 231 230 236 241 245 250 255 259 260 258 257 256 255 256 259 260 260 262 264 264 266 267 267 268 267 267 268 269 269 269 268 269 274 275 274 273 274 276 279 281 282 284 284 282 283 284 283 281
172 172 174 176 174 171 172 176 177 178 182 184 181 179 177 175 175 176 178 178 169 161 163 163 157 162 172 177 180 178 182 188 187 204 232 241 249 252 251 253 255 255 255 257 260 263 263 262 261 259 258 260 261 262 262 264 266 266 265 265 268 269 271 272 272 271 269 267 268 272 276 277 278 279 281 284 285 285 284 282 278 277 276 273 270
167 168 168 168 169 169 168 171 174 177 184 190 191 190 188 185 183 181 181 183 181 173 174 180 179 180 189 199 214 216 220 244 248 245 254 261 261 261 261 264 266 266 263 263 265 268 269 268 267 265 265 266 267 265 263 265 267 267 265 266 269 272 273 273 273 271 269 268 270 273 276 278 279 281 283 285 285 284 282 281 280 276 269 262 259
162 164 166 166 166 167 170 172 175 176 179 185 192 197 202 205 204 200 199 201 199 193 200 212 211 213 221 232 246 243 247 296 301 286 278 278 274 269 269 270 270 269 266 266 268 269 270 270 270 270 272 272 272 270 269 270 272 273 275 277 280 281 280 280 279 278 276 275 276 278 279 280 281 282 282 284 284 284 284 283 281 275 266 258 253
155 154 159 165 168 174 181 186 189 190 186 185 191 199 207 215 220 220 222 228 227 222 231 240 241 243 248 252 257 256 259 283 294 288 282 280 276 274 273 272 270 268 267 267 267 265 265 267 268 269 271 272 273 274 274 276 277 280 285 289 290 289 288 288 288 288 286 284 284 285 284 284 287 287 286 285 283 282 282 281 277 271 265 255 244
152 154 161 172 179 184 192 196 194 191 185 182 186 195 204 209 213 215 220 231 236 233 237 247 254 259 263 266 271 273 274 280 283 280 278 277 275 273 272 269 266 265 265 267 268 268 267 266 267 269 270 272 276 277 278 279 280 282 286 289 291 292 292 291 292 293 290 288 290 292 288 287 290 290 285 280 274 273 274 272 265 259 253 242 231